Location: Unspecified
(0.0000°N, 0.0000°E)
Time: 01:29:59
(UTC+00:00)

Vanguard 2 Rocket - Pass Details

Date: 24 November 2019
Orbit: 554 x 3326 km, 32.9° (Epoch: 11 December)

Event Time Altitude Azimuth Distance (km) Brightness Sun altitude
Exits shadow 04:26:03 - 350° (N) 3,248 9.4 -18.8°
Reaches altitude 10° 04:27:56 10° 4° (N) 2,989 9.4 -18.4°
Maximum altitude 04:32:28 17° 41° (NE) 3,030 9.8 -17.3°
Drops below altitude 10° 04:38:30 10° 76° (ENE) 4,195 11.1 -15.9°
Sets 04:44:48 0° 94° (E) 5,845 12.5 -14.4°
